Location: Stony Creek
(40.9500°S, 175.8500°E)
Time: 08:44:46
(UTC+00:00)

COSMO-SKYMED 1 - Pass Details

Date: 15 May 2026
Orbit: 575 x 577 km, 97.9° (Epoch: 9 June)

Event Time Altitude Azimuth Distance (km) Brightness Sun altitude
Rises 18:32:18 0° 162° (SSE) 2,833 6.0 -8.8°
Reaches altitude 10° 18:34:32 10° 157° (SSE) 1,924 5.2 -8.4°
Maximum altitude 18:38:36 51° 80° (E) 747 3.5 -7.7°
Drops below altitude 10° 18:42:37 10° 4° (N) 1,897 5.4 -7.0°
Sets 18:44:48 0° 358° (N) 2,787 6.2 -6.6°
